Time,TemperatureF,DewpointF,PressureIn,WindDirection,WindDirectionDegrees,WindSpeedMPH,WindSpeedGustMPH,Humidity,HourlyPrecipIn,Conditions,Clouds,dailyrainin,SolarRadiationWatts/m^2,SoftwareType,DateUTC
2013-06-06 00:07:00,62.8,60.4,30.01,SW,216,0.0,0.0,92,0.00,,,0.00,0,Wunderground v.1.15,2013-06-06 05:07:00,
2013-06-06 00:17:00,62.7,60.6,30.02,WNW,296,0.0,2.0,93,0.00,,,0.00,0,Wunderground v.1.15,2013-06-06 05:17:00,
2013-06-06 00:27:00,62.7,60.6,30.01,WNW,296,1.0,1.0,93,0.00,,,0.00,0,Wunderground v.1.15,2013-06-06 05:27:00,
2013-06-06 00:32:00,62.7,60.9,30.00,WNW,296,0.0,1.0,94,0.00,,,0.00,0,Wunderground v.1.15,2013-06-06 05:32:00,
2013-06-06 00:42:00,62.7,60.9,30.00,WNW,296,0.0,1.0,94,0.00,,,0.00,0,Wunderground v.1.15,2013-06-06 05:42:00,
2013-06-06 00:52:00,62.5,60.7,30.00,WNW,296,0.0,0.0,94,0.00,,,0.00,0,Wunderground v.1.15,2013-06-06 05:52:00,
2013-06-06 00:57:00,62.5,60.7,30.00,WNW,296,0.0,0.0,94,0.00,,,0.00,0,Wunderground v.1.15,2013-06-06 05:57:00,
2013-06-06 01:03:00,62.5,61.0,30.00,WNW,296,1.0,2.0,95,0.00,,,0.00,0,Wunderground v.1.15,2013-06-06 06:03:00,
2013-06-06 01:08:00,62.5,61.0,30.00,WNW,296,1.0,1.0,95,0.00,,,0.00,0,Wunderground v.1.15,2013-06-06 06:08:00,
2013-06-06 01:13:00,62.5,61.0,30.00,WNW,296,1.0,2.0,95,0.00,,,0.00,0,Wunderground v.1.15,2013-06-06 06:13:00,
2013-06-06 01:23:00,62.7,61.2,30.00,WNW,296,1.0,2.0,95,0.00,,,0.00,0,Wunderground v.1.15,2013-06-06 06:23:00,
2013-06-06 01:33:00,63.0,61.8,29.99,WNW,297,1.0,1.0,96,0.00,,,0.00,0,Wunderground v.1.15,2013-06-06 06:33:00,
2013-06-06 01:43:00,63.3,62.1,29.99,WNW,298,1.0,1.0,96,0.00,,,0.00,0,Wunderground v.1.15,2013-06-06 06:43:00,
2013-06-06 01:48:00,63.3,62.1,29.98,WNW,298,0.0,0.0,96,0.00,,,0.00,0,Wunderground v.1.15,2013-06-06 06:48:00,
2013-06-06 01:58:00,63.4,62.2,29.99,WNW,298,0.0,0.0,96,0.00,,,0.00,0,Wunderground v.1.15,2013-06-06 06:58:00,
2013-06-06 02:08:00,63.6,62.4,29.98,NW,311,1.0,1.0,96,0.00,,,0.00,0,Wunderground v.1.15,2013-06-06 07:08:00,
2013-06-06 02:13:00,63.7,62.5,29.98,NW,311,2.0,2.0,96,0.00,,,0.00,0,Wunderground v.1.15,2013-06-06 07:13:00,
2013-06-06 02:23:00,63.8,62.6,29.98,NNW,338,2.0,4.0,96,0.00,,,0.00,0,Wunderground v.1.15,2013-06-06 07:23:00,
2013-06-06 02:33:00,63.9,62.7,29.98,North,5,3.0,3.0,96,0.00,,,0.00,0,Wunderground v.1.15,2013-06-06 07:33:00,
2013-06-06 02:38:00,63.9,62.7,29.98,North,5,3.0,3.0,96,0.00,,,0.00,0,Wunderground v.1.15,2013-06-06 07:38:00,
2013-06-06 02:48:00,63.8,62.6,29.98,North,355,3.0,3.0,96,0.00,,,0.00,0,Wunderground v.1.15,2013-06-06 07:48:00,
2013-06-06 02:58:00,63.8,62.9,29.97,NNW,344,2.0,3.0,97,0.00,,,0.00,0,Wunderground v.1.15,2013-06-06 07:58:00,
2013-06-06 03:08:00,63.8,62.9,29.97,NNW,342,2.0,6.0,97,0.00,,,0.00,0,Wunderground v.1.15,2013-06-06 08:08:00,
2013-06-06 03:13:00,63.8,62.9,29.97,NNW,339,2.0,6.0,97,0.00,,,0.00,0,Wunderground v.1.15,2013-06-06 08:13:00,
2013-06-06 03:23:00,63.8,62.9,29.97,North,5,3.0,3.0,97,0.00,,,0.00,0,Wunderground v.1.15,2013-06-06 08:23:00,
2013-06-06 03:33:00,63.7,62.5,29.97,NNW,333,2.0,3.0,96,0.00,,,0.00,0,Wunderground v.1.15,2013-06-06 08:33:00,
2013-06-06 03:43:00,63.7,62.5,29.98,NNW,345,2.0,2.0,96,0.00,,,0.00,0,Wunderground v.1.15,2013-06-06 08:43:00,
2013-06-06 03:53:00,63.7,62.5,29.98,North,349,2.0,3.0,96,0.00,,,0.00,0,Wunderground v.1.15,2013-06-06 08:53:00,
2013-06-06 04:03:00,63.6,62.4,29.98,NNW,348,2.0,4.0,96,0.00,,,0.00,0,Wunderground v.1.15,2013-06-06 09:03:00,
2013-06-06 04:08:00,63.6,62.4,29.98,North,355,2.0,3.0,96,0.00,,,0.00,0,Wunderground v.1.15,2013-06-06 09:08:00,
2013-06-06 04:18:00,63.6,62.4,29.98,North,355,2.0,2.0,96,0.00,,,0.00,0,Wunderground v.1.15,2013-06-06 09:18:00,
2013-06-06 04:28:00,63.6,62.4,29.98,NNW,337,3.0,3.0,96,0.00,,,0.00,0,Wunderground v.1.15,2013-06-06 09:28:00,
2013-06-06 04:33:00,63.6,62.4,29.98,North,5,3.0,3.0,96,0.00,,,0.00,0,Wunderground v.1.15,2013-06-06 09:33:00,
2013-06-06 04:43:00,63.6,62.4,29.98,North,355,2.0,4.0,96,0.00,,,0.00,0,Wunderground v.1.15,2013-06-06 09:43:00,
2013-06-06 04:53:00,63.5,62.3,29.98,NNW,333,2.0,2.0,96,0.00,,,0.00,0,Wunderground v.1.15,2013-06-06 09:53:00,
2013-06-06 04:58:00,63.5,62.3,29.98,NNW,332,2.0,2.0,96,0.00,,,0.00,0,Wunderground v.1.15,2013-06-06 09:58:00,
2013-06-06 05:08:00,63.5,62.3,29.99,NW,326,3.0,3.0,96,0.00,,,0.00,0,Wunderground v.1.15,2013-06-06 10:08:00,
2013-06-06 05:18:00,63.4,62.2,29.99,North,355,3.0,3.0,96,0.00,,,0.00,0,Wunderground v.1.15,2013-06-06 10:18:00,
2013-06-06 05:23:00,63.4,62.2,29.99,North,355,2.0,3.0,96,0.00,,,0.00,0,Wunderground v.1.15,2013-06-06 10:23:00,
2013-06-06 05:33:00,63.4,62.2,29.91,North,351,1.0,1.0,96,0.00,,,0.00,0,Wunderground v.1.15,2013-06-06 10:33:00,
2013-06-06 05:43:00,63.4,62.2,29.99,NW,322,3.0,4.0,96,0.00,,,0.00,0,Wunderground v.1.15,2013-06-06 10:43:00,
2013-06-06 05:53:00,63.2,61.7,30.00,NNW,333,3.0,6.0,95,0.00,,,0.00,0,Wunderground v.1.15,2013-06-06 10:53:00,
2013-06-06 06:03:00,63.0,61.5,30.00,NNW,348,4.0,8.0,95,0.00,,,0.00,0,Wunderground v.1.15,2013-06-06 11:03:00,
2013-06-06 06:08:00,62.8,61.3,30.00,NNW,336,4.0,4.0,95,0.00,,,0.00,0,Wunderground v.1.15,2013-06-06 11:08:00,
2013-06-06 06:18:00,62.6,61.1,30.00,NNW,331,4.0,4.0,95,0.00,,,0.00,5,Wunderground v.1.15,2013-06-06 11:18:00,
2013-06-06 06:28:00,62.4,60.7,30.00,North,5,4.0,4.0,94,0.00,,,0.00,14,Wunderground v.1.15,2013-06-06 11:28:00,
2013-06-06 06:33:00,62.3,60.6,30.00,NNW,336,3.0,5.0,94,0.00,,,0.00,21,Wunderground v.1.15,2013-06-06 11:33:00,
2013-06-06 06:43:00,62.2,60.5,30.00,NNE,16,2.0,3.0,94,0.00,,,0.00,26,Wunderground v.1.15,2013-06-06 11:43:00,
2013-06-06 06:52:00,62.3,60.6,30.00,North,5,2.0,4.0,94,0.00,,,0.00,23,Wunderground v.1.15,2013-06-06 11:52:00,
2013-06-06 07:02:00,62.3,60.2,30.00,North,5,2.0,3.0,93,0.00,,,0.01,39,Wunderground v.1.15,2013-06-06 12:02:00,
2013-06-06 07:08:00,62.3,60.2,30.00,North,5,2.0,2.0,93,0.00,,,0.01,53,Wunderground v.1.15,2013-06-06 12:08:00,
2013-06-06 07:17:00,62.4,60.3,30.00,NNE,13,2.0,2.0,93,0.00,,,0.01,97,Wunderground v.1.15,2013-06-06 12:17:00,
2013-06-06 07:27:00,62.7,60.6,30.00,NNE,19,1.0,2.0,93,0.00,,,0.01,107,Wunderground v.1.15,2013-06-06 12:27:00,
2013-06-06 07:33:00,62.8,60.4,29.99,NNE,24,1.0,2.0,92,0.00,,,0.01,95,Wunderground v.1.15,2013-06-06 12:33:00,
2013-06-06 07:42:00,63.2,60.8,29.91,NE,36,2.0,2.0,92,0.00,,,0.01,271,Wunderground v.1.15,2013-06-06 12:42:00,
2013-06-06 07:52:00,64.1,61.4,30.00,NNE,16,2.0,2.0,91,0.00,,,0.01,165,Wunderground v.1.15,2013-06-06 12:52:00,
2013-06-06 08:02:00,64.5,61.8,29.99,NE,42,4.0,6.0,91,0.00,,,0.01,425,Wunderground v.1.15,2013-06-06 13:02:00,
2013-06-06 08:07:00,64.9,61.9,29.99,NNW,339,3.0,3.0,90,0.00,,,0.01,417,Wunderground v.1.15,2013-06-06 13:07:00,
2013-06-06 08:17:00,65.1,61.5,30.00,North,5,3.0,3.0,88,0.00,,,0.01,220,Wunderground v.1.15,2013-06-06 13:17:00,
2013-06-06 08:27:00,65.2,61.2,30.00,North,360,2.0,2.0,87,0.00,,,0.01,165,Wunderground v.1.15,2013-06-06 13:27:00,
2013-06-06 08:37:00,65.3,61.0,30.00,North,355,3.0,3.0,86,0.00,,,0.01,534,Wunderground v.1.15,2013-06-06 13:37:00,
2013-06-06 08:42:00,65.8,60.5,30.00,NNE,27,4.0,5.0,83,0.00,,,0.01,555,Wunderground v.1.15,2013-06-06 13:42:00,
2013-06-06 08:52:00,66.8,60.1,30.01,NNW,344,4.0,5.0,79,0.00,,,0.01,566,Wunderground v.1.15,2013-06-06 13:52:00,
2013-06-06 08:57:00,67.1,60.0,30.01,NE,49,4.0,4.0,78,0.00,,,0.01,568,Wunderground v.1.15,2013-06-06 13:57:00,
2013-06-06 09:03:00,67.4,59.9,30.01,NNW,345,4.0,4.0,77,0.00,,,0.01,621,Wunderground v.1.15,2013-06-06 14:03:00,
2013-06-06 09:13:00,68.1,59.1,30.01,NNW,342,4.0,7.0,73,0.00,,,0.01,359,Wunderground v.1.15,2013-06-06 14:13:00,
2013-06-06 09:18:00,68.1,59.1,30.01,NNW,344,4.0,4.0,73,0.00,,,0.01,541,Wunderground v.1.15,2013-06-06 14:18:00,
2013-06-06 09:28:00,68.2,57.6,30.01,NE,38,5.0,5.0,69,0.00,,,0.01,640,Wunderground v.1.15,2013-06-06 14:28:00,
2013-06-06 09:38:00,68.8,57.8,30.01,NNE,13,4.0,4.0,68,0.00,,,0.01,677,Wunderground v.1.15,2013-06-06 14:38:00,
2013-06-06 09:48:00,68.8,58.2,30.00,North,10,4.0,4.0,69,0.00,,,0.01,617,Wunderground v.1.15,2013-06-06 14:48:00,
2013-06-06 09:53:00,69.2,57.8,30.00,NE,44,4.0,4.0,67,0.00,,,0.01,717,Wunderground v.1.15,2013-06-06 14:53:00,
2013-06-06 10:03:00,69.3,56.6,29.99,North,9,4.0,4.0,64,0.00,,,0.01,647,Wunderground v.1.15,2013-06-06 15:03:00,
2013-06-06 10:08:00,69.4,57.1,29.99,NE,50,4.0,6.0,65,0.00,,,0.01,708,Wunderground v.1.15,2013-06-06 15:08:00,
2013-06-06 10:18:00,69.5,58.1,29.99,North,355,3.0,6.0,67,0.00,,,0.01,754,Wunderground v.1.15,2013-06-06 15:18:00,
2013-06-06 10:28:00,69.6,57.3,29.99,NNE,33,3.0,4.0,65,0.00,,,0.01,673,Wunderground v.1.15,2013-06-06 15:28:00,
2013-06-06 10:38:00,69.8,57.5,29.99,North,5,4.0,4.0,65,0.00,,,0.01,819,Wunderground v.1.15,2013-06-06 15:38:00,
2013-06-06 10:43:00,70.2,56.6,29.99,NNE,16,4.0,4.0,62,0.00,,,0.01,879,Wunderground v.1.15,2013-06-06 15:43:00,
2013-06-06 10:53:00,71.0,55.9,29.99,NNE,20,4.0,4.0,59,0.00,,,0.01,833,Wunderground v.1.15,2013-06-06 15:53:00,
2013-06-06 11:03:00,71.1,56.5,30.00,NE,38,5.0,5.0,60,0.00,,,0.01,891,Wunderground v.1.15,2013-06-06 16:03:00,
2013-06-06 11:13:00,71.0,55.9,30.00,WNW,294,3.0,4.0,59,0.00,,,0.01,940,Wunderground v.1.15,2013-06-06 16:13:00,
2013-06-06 11:18:00,71.1,55.1,30.00,NNW,332,4.0,5.0,57,0.00,,,0.01,227,Wunderground v.1.15,2013-06-06 16:18:00,
2013-06-06 11:28:00,71.3,54.8,30.00,North,360,6.0,6.0,56,0.00,,,0.01,953,Wunderground v.1.15,2013-06-06 16:28:00,
2013-06-06 11:38:00,72.4,55.8,30.00,North,351,2.0,6.0,56,0.00,,,0.01,976,Wunderground v.1.15,2013-06-06 16:38:00,
2013-06-06 11:48:00,71.9,53.8,30.00,NE,46,5.0,5.0,53,0.00,,,0.01,925,Wunderground v.1.15,2013-06-06 16:48:00,
2013-06-06 11:58:00,72.4,55.8,30.00,North,355,3.0,7.0,56,0.00,,,0.01,1014,Wunderground v.1.15,2013-06-06 16:58:00,
2013-06-06 12:03:00,72.2,54.6,30.01,NNW,331,5.0,7.0,54,0.00,,,0.01,935,Wunderground v.1.15,2013-06-06 17:03:00,
2013-06-06 12:13:00,72.0,55.9,30.01,NW,323,5.0,5.0,57,0.00,,,0.01,1121,Wunderground v.1.15,2013-06-06 17:13:00,
2013-06-06 12:23:00,72.2,54.6,30.01,NE,44,4.0,7.0,54,0.00,,,0.01,1037,Wunderground v.1.15,2013-06-06 17:23:00,
2013-06-06 12:33:00,73.2,55.6,30.00,NW,323,6.0,9.0,54,0.00,,,0.01,1097,Wunderground v.1.15,2013-06-06 17:33:00,
2013-06-06 12:38:00,73.2,55.6,30.00,North,351,6.0,6.0,54,0.00,,,0.01,1076,Wunderground v.1.15,2013-06-06 17:38:00,
2013-06-06 12:48:00,73.2,55.6,30.00,NW,314,6.0,10.0,54,0.00,,,0.01,1042,Wunderground v.1.15,2013-06-06 17:48:00,
2013-06-06 12:53:00,73.5,55.8,30.00,NNW,345,5.0,10.0,54,0.00,,,0.01,956,Wunderground v.1.15,2013-06-06 17:53:00,
2013-06-06 13:03:00,73.2,55.6,29.99,NW,309,6.0,6.0,54,0.00,,,0.01,1116,Wunderground v.1.15,2013-06-06 18:03:00,
2013-06-06 13:13:00,73.0,55.9,29.99,NW,307,5.0,7.0,55,0.00,,,0.01,329,Wunderground v.1.15,2013-06-06 18:13:00,
2013-06-06 13:18:00,72.3,54.7,30.00,NNW,346,4.0,8.0,54,0.00,,,0.01,302,Wunderground v.1.15,2013-06-06 18:18:00,
2013-06-06 13:28:00,73.2,55.0,29.99,NW,315,5.0,9.0,53,0.00,,,0.01,1165,Wunderground v.1.15,2013-06-06 18:28:00,
2013-06-06 13:38:00,72.9,55.8,29.99,NW,314,5.0,5.0,55,0.00,,,0.01,998,Wunderground v.1.15,2013-06-06 18:38:00,
2013-06-06 13:48:00,74.1,55.9,29.99,NNW,339,3.0,8.0,53,0.00,,,0.01,1058,Wunderground v.1.15,2013-06-06 18:48:00,
2013-06-06 13:53:00,74.7,58.0,29.99,NW,304,4.0,8.0,56,0.00,,,0.01,1195,Wunderground v.1.15,2013-06-06 18:53:00,
2013-06-06 14:03:00,73.4,55.2,29.99,NNE,23,4.0,5.0,53,0.00,,,0.01,1129,Wunderground v.1.15,2013-06-06 19:03:00,
2013-06-06 14:08:00,74.1,55.3,29.99,NW,313,3.0,3.0,52,0.00,,,0.01,1137,Wunderground v.1.15,2013-06-06 19:08:00,
2013-06-06 14:18:00,74.7,56.9,29.98,NNW,344,5.0,5.0,54,0.00,,,0.01,1092,Wunderground v.1.15,2013-06-06 19:18:00,
2013-06-06 14:28:00,74.5,55.7,30.00,NNW,343,3.0,3.0,52,0.00,,,0.01,1174,Wunderground v.1.15,2013-06-06 19:28:00,
2013-06-06 14:37:00,74.3,56.1,29.57,North,355,3.0,5.0,53,0.00,,,0.01,271,Wunderground v.1.15,2013-06-06 19:37:00,
2013-06-06 14:43:00,73.7,56.5,29.57,North,350,3.0,5.0,55,0.00,,,0.01,366,Wunderground v.1.15,2013-06-06 19:43:00,
2013-06-06 14:53:00,74.4,55.6,29.99,NNW,329,3.0,4.0,52,0.00,,,0.01,336,Wunderground v.1.15,2013-06-06 19:53:00,
2013-06-06 14:58:00,73.7,55.5,29.99,NW,325,3.0,3.0,53,0.00,,,0.01,336,Wunderground v.1.15,2013-06-06 19:58:00,
2013-06-06 15:08:00,73.7,55.5,29.99,NW,323,5.0,5.0,53,0.00,,,0.01,1002,Wunderground v.1.15,2013-06-06 20:08:00,
2013-06-06 15:17:00,74.3,55.5,29.81,West,279,3.0,3.0,52,0.00,,,0.01,297,Wunderground v.1.15,2013-06-06 20:17:00,
2013-06-06 15:22:00,73.5,55.3,29.81,NNE,28,2.0,6.0,53,0.00,,,0.01,919,Wunderground v.1.15,2013-06-06 20:22:00,
2013-06-06 15:27:00,73.8,56.6,29.96,NNW,330,3.0,3.0,55,0.00,,,0.01,991,Wunderground v.1.15,2013-06-06 20:27:00,
2013-06-06 15:32:00,74.2,56.0,29.12,NW,322,4.0,4.0,53,0.00,,,0.01,779,Wunderground v.1.15,2013-06-06 20:32:00,
2013-06-06 15:42:00,73.3,55.6,29.97,NW,317,2.0,4.0,54,0.00,,,0.01,253,Wunderground v.1.15,2013-06-06 20:42:00,
2013-06-06 15:52:00,73.4,55.7,29.97,NNW,327,3.0,4.0,54,0.00,,,0.01,320,Wunderground v.1.15,2013-06-06 20:52:00,
2013-06-06 16:02:00,73.1,55.5,29.72,North,349,3.0,3.0,54,0.00,,,0.01,290,Wunderground v.1.15,2013-06-06 21:02:00,
2013-06-06 16:12:00,73.9,56.2,29.84,North,349,3.0,6.0,54,0.00,,,0.01,294,Wunderground v.1.15,2013-06-06 21:12:00,
2013-06-06 16:17:00,73.3,55.6,29.98,NNW,336,4.0,4.0,54,0.00,,,0.01,220,Wunderground v.1.15,2013-06-06 21:17:00,
2013-06-06 16:27:00,72.5,56.4,29.98,NW,320,2.0,6.0,57,0.00,,,0.01,204,Wunderground v.1.15,2013-06-06 21:27:00,
2013-06-06 16:37:00,72.6,56.0,29.98,NW,317,2.0,2.0,56,0.00,,,0.01,223,Wunderground v.1.15,2013-06-06 21:37:00,
2013-06-06 16:47:00,73.2,55.6,29.96,NW,308,3.0,3.0,54,0.00,,,0.01,571,Wunderground v.1.15,2013-06-06 21:47:00,
2013-06-06 16:57:00,73.8,55.6,29.96,NW,319,2.0,2.0,53,0.00,,,0.01,359,Wunderground v.1.15,2013-06-06 21:57:00,
2013-06-06 17:03:00,73.9,56.2,29.96,NW,305,2.0,2.0,54,0.00,,,0.01,454,Wunderground v.1.15,2013-06-06 22:03:00,
2013-06-06 17:08:00,74.1,55.9,29.45,NW,317,3.0,4.0,53,0.00,,,0.01,311,Wunderground v.1.15,2013-06-06 22:08:00,
2013-06-06 17:18:00,73.7,56.0,29.97,NW,321,2.0,6.0,54,0.00,,,0.01,285,Wunderground v.1.15,2013-06-06 22:18:00,
2013-06-06 17:23:00,73.4,55.2,29.97,NNW,344,2.0,6.0,53,0.00,,,0.01,283,Wunderground v.1.15,2013-06-06 22:23:00,
2013-06-06 17:33:00,73.1,56.0,29.94,NNW,344,2.0,3.0,55,0.00,,,0.01,142,Wunderground v.1.15,2013-06-06 22:33:00,
2013-06-06 17:43:00,72.4,55.8,29.97,North,355,2.0,4.0,56,0.00,,,0.01,141,Wunderground v.1.15,2013-06-06 22:43:00,
2013-06-06 17:53:00,71.9,55.3,29.93,North,5,5.0,9.0,56,0.00,,,0.01,114,Wunderground v.1.15,2013-06-06 22:53:00,
2013-06-06 18:03:00,71.5,55.0,29.28,NNW,340,4.0,5.0,56,0.00,,,0.01,105,Wunderground v.1.15,2013-06-06 23:03:00,
2013-06-06 18:08:00,71.3,55.3,29.96,North,355,3.0,3.0,57,0.00,,,0.01,130,Wunderground v.1.15,2013-06-06 23:08:00,
2013-06-06 18:18:00,71.5,55.0,29.96,North,5,2.0,3.0,56,0.00,,,0.01,130,Wunderground v.1.15,2013-06-06 23:18:00,
2013-06-06 18:28:00,71.5,55.5,29.96,North,355,1.0,1.0,57,0.00,,,0.01,118,Wunderground v.1.15,2013-06-06 23:28:00,
2013-06-06 18:38:00,71.4,55.4,29.96,NNE,16,2.0,5.0,57,0.00,,,0.01,149,Wunderground v.1.15,2013-06-06 23:38:00,
2013-06-06 18:48:00,71.5,55.5,28.72,NNW,342,2.0,2.0,57,0.00,,,0.01,130,Wunderground v.1.15,2013-06-06 23:48:00,
2013-06-06 18:53:00,71.5,55.5,28.72,North,360,1.0,2.0,57,0.00,,,0.01,109,Wunderground v.1.15,2013-06-06 23:53:00,
2013-06-06 19:03:00,71.4,56.3,29.00,North,360,1.0,3.0,59,0.00,,,0.01,104,Wunderground v.1.15,2013-06-07 00:03:00,
2013-06-06 19:13:00,71.1,56.5,28.92,NNW,338,1.0,3.0,60,0.00,,,0.01,121,Wunderground v.1.15,2013-06-07 00:13:00,
2013-06-06 19:23:00,71.7,57.1,28.92,NNW,339,1.0,3.0,60,0.00,,,0.01,207,Wunderground v.1.15,2013-06-07 00:23:00,
2013-06-06 19:33:00,71.7,56.1,28.92,NW,320,2.0,2.0,58,0.00,,,0.01,171,Wunderground v.1.15,2013-06-07 00:33:00,
2013-06-06 19:38:00,71.5,55.9,28.92,NNE,33,2.0,2.0,58,0.00,,,0.01,116,Wunderground v.1.15,2013-06-07 00:38:00,
2013-06-06 19:48:00,70.7,55.7,28.92,NNE,28,1.0,1.0,59,0.00,,,0.01,56,Wunderground v.1.15,2013-06-07 00:48:00,
2013-06-06 19:58:00,69.9,55.4,28.92,NNW,348,0.0,0.0,60,0.00,,,0.01,28,Wunderground v.1.15,2013-06-07 00:58:00,
2013-06-06 20:08:00,69.4,55.8,28.16,NNW,329,0.0,0.0,62,0.00,,,0.01,23,Wunderground v.1.15,2013-06-07 01:08:00,
2013-06-06 20:13:00,68.9,55.8,28.38,NNW,329,0.0,0.0,63,0.00,,,0.01,19,Wunderground v.1.15,2013-06-07 01:13:00,
2013-06-06 20:23:00,68.4,55.7,28.38,NNW,329,0.0,0.0,64,0.00,,,0.01,12,Wunderground v.1.15,2013-06-07 01:23:00,
2013-06-06 20:33:00,68.0,55.8,28.38,NNW,329,0.0,0.0,65,0.00,,,0.01,7,Wunderground v.1.15,2013-06-07 01:33:00,
2013-06-06 20:43:00,67.6,55.4,28.38,NNW,338,0.0,0.0,65,0.00,,,0.01,0,Wunderground v.1.15,2013-06-07 01:43:00,
2013-06-06 20:53:00,67.1,55.8,28.38,NNW,338,0.0,0.0,67,0.00,,,0.01,0,Wunderground v.1.15,2013-06-07 01:53:00,
2013-06-06 21:03:00,65.3,56.8,28.38,NNW,336,0.0,0.0,74,0.00,,,0.01,0,Wunderground v.1.15,2013-06-07 02:03:00,
2013-06-06 21:13:00,65.3,55.3,28.38,NNW,336,0.0,0.0,70,0.00,,,0.01,0,Wunderground v.1.15,2013-06-07 02:13:00,
2013-06-06 21:23:00,65.2,55.2,29.82,NNW,336,0.0,0.0,70,0.00,,,0.01,0,Wunderground v.1.15,2013-06-07 02:23:00,
2013-06-06 21:33:00,64.8,55.6,29.82,NNW,336,0.0,0.0,72,0.00,,,0.01,0,Wunderground v.1.15,2013-06-07 02:33:00,
2013-06-06 21:38:00,64.0,55.2,29.93,NNW,336,0.0,0.0,73,0.00,,,0.01,0,Wunderground v.1.15,2013-06-07 02:38:00,
2013-06-06 21:48:00,63.2,55.5,29.93,NNW,336,0.0,0.0,76,0.00,,,0.01,0,Wunderground v.1.15,2013-06-07 02:48:00,
2013-06-06 21:58:00,63.2,55.1,29.91,NNW,336,0.0,0.0,75,0.00,,,0.01,0,Wunderground v.1.15,2013-06-07 02:58:00,
2013-06-06 22:08:00,63.5,55.1,30.00,NNW,336,0.0,0.0,74,0.00,,,0.01,0,Wunderground v.1.15,2013-06-07 03:08:00,
2013-06-06 22:18:00,62.7,55.0,30.00,NNW,336,0.0,0.0,76,0.00,,,0.01,0,Wunderground v.1.15,2013-06-07 03:18:00,
2013-06-06 22:28:00,62.2,54.9,30.01,NNW,336,0.0,0.0,77,0.00,,,0.01,0,Wunderground v.1.15,2013-06-07 03:28:00,
2013-06-06 22:37:00,61.6,55.0,29.88,NNW,336,0.0,0.0,79,0.00,,,0.01,0,Wunderground v.1.15,2013-06-07 03:37:00,
2013-06-06 22:47:00,61.1,54.5,30.01,NNW,336,0.0,0.0,79,0.00,,,0.01,0,Wunderground v.1.15,2013-06-07 03:47:00,
2013-06-06 22:53:00,60.8,54.6,29.92,NNW,336,0.0,0.0,80,0.00,,,0.01,0,Wunderground v.1.15,2013-06-07 03:53:00,
2013-06-06 23:03:00,60.8,54.2,30.01,NNW,336,0.0,0.0,79,0.00,,,0.01,0,Wunderground v.1.15,2013-06-07 04:03:00,
2013-06-06 23:07:00,60.7,54.5,29.99,NNW,336,0.0,0.0,80,0.00,,,0.01,0,Wunderground v.1.15,2013-06-07 04:07:00,
2013-06-06 23:12:00,60.4,54.5,30.01,NNW,336,0.0,0.0,81,0.00,,,0.01,0,Wunderground v.1.15,2013-06-07 04:12:00,
2013-06-06 23:18:00,60.2,54.3,30.00,NNW,336,0.0,0.0,81,0.00,,,0.01,0,Wunderground v.1.15,2013-06-07 04:18:00,
2013-06-06 23:27:00,59.7,54.5,29.92,NNW,336,0.0,0.0,83,0.00,,,0.01,0,Wunderground v.1.15,2013-06-07 04:27:00,
2013-06-06 23:37:00,59.1,53.9,29.92,NNW,336,0.0,0.0,83,0.00,,,0.01,0,Wunderground v.1.15,2013-06-07 04:37:00,
2013-06-06 23:47:00,59.0,53.8,29.75,NNW,336,0.0,0.0,83,0.00,,,0.01,0,Wunderground v.1.15,2013-06-07 04:47:00,
2013-06-06 23:57:00,59.0,53.8,29.92,NNW,336,0.0,0.0,83,0.00,,,0.01,0,Wunderground v.1.15,2013-06-07 04:57:00,